Theta_e
324 324 323 321 321 319 319 319 318 318 319 319 319 319 318 318 318 318 318 318 318 318
322 322 322 321 320 320 318 318 316 316 317 318 318 318 318 319 319 318 318 318 318 318
321 322 322 319 318 317 318 315 315 315 316 317 318 318 318 320 320 319 319 318 318 317
319 319 319 319 317 317 315 314 315 315 316 317 318 319 319 320 320 319 319 319 317 316
315 313 314 316 317 312 315 314 316 317 318 319 319 320 319 319 319 318 317 317 315 313
311 311 312 313 312 312 313 314 316 318 318 318 319 319 318 319 317 314 313 312 310 311
308 308 308 308 310 311 311 311 312 313 313 311 311 310 307 305 306 305 305 303 302 302
297 297 296 296 298 302 304 304 303 303 301 299 300 298 299 299 299 298 298 297 297 297
294 293 293 291 291 295 295 296 295 294 294 295 294 295 296 296 296 295 294 293 294 293
290 291 290 289 289 289 289 289 290 290 292 292 293 294 294 292 292 292 292 291 290 289
289 289 288 288 288 287 287 287 287 289 290 290 289 292 292 291 290 289 290 289 288 288
288 285 285 284 285 285 285 288 287 287 286 287 287 290 291 290 286 287 287 286 287 287
286 284 283 284 284 284 286 286 286 286 286 285 285 289 290 289 286 286 283 282 285 286
282 283 283 284 283 285 285 285 285 285 285 285 285 285 290 290 286 285 285 284 282 282
Wind_Speed
16 12 12 12 10 9 9 9 7 9 10 11 9 9 9 8 8 8 10 14 12 11
14 15 14 13 9 9 8 6 6 8 9 9 10 11 11 10 11 11 12 13 14 13
14 13 12 7 11 9 9 7 7 8 10 11 11 11 12 11 12 13 11 11 13 12
12 12 10 10 9 11 7 8 10 10 9 11 12 12 12 12 13 13 13 12 12 14
10 9 10 11 12 7 11 8 9 10 11 11 11 11 11 12 10 11 12 12 9 10
10 9 11 10 8 7 6 7 8 9 10 10 10 8 8 9 9 6 6 5 6 8
7 7 5 5 5 5 3 3 3 4 4 3 2 2 2 3 4 4 4 4 4 5
5 5 5 5 5 4 3 2 3 3 5 4 4 3 3 3 3 3 4 4 4 4
6 6 6 6 6 6 4 4 5 5 4 4 2 3 3 2 1 1 2 4 4 4
7 7 7 6 7 7 6 5 5 4 4 3 4 4 4 3 0 1 3 3 3 4
7 7 6 7 6 6 4 6 5 5 4 3 4 5 5 4 2 1 2 3 3 3
6 6 6 6 6 4 5 4 3 3 3 4 3 3 3 3 3 2 3 2 1 1
6 6 6 6 6 3 3 4 4 4 3 4 3 3 3 3 3 3 1 1 0 1
5 6 7 7 4 5 5 6 4 5 3 4 2 3 5 5 1 0 1 0 1 2
Wind_Direction
210 211 216 211 214 216 220 220 208 203 213 218 218 217 213 222 227 221 225 232 230 236
208 213 217 216 210 219 218 213 191 188 200 209 211 213 207 223 228 219 227 234 232 234
208 213 219 203 214 212 217 194 191 195 203 211 217 217 214 227 231 229 232 237 238 237
202 205 202 207 209 212 197 192 203 202 205 214 218 222 222 229 233 233 240 240 236 239
195 183 193 204 214 183 209 201 206 206 214 221 225 227 226 236 236 236 241 240 242 245
191 188 201 207 201 200 204 207 208 210 214 222 229 231 231 235 241 227 237 254 248 262
187 188 175 165 178 193 199 210 220 225 232 252 260 277 340 357 334 349 347 336 322 311
175 167 158 158 146 157 142 119 84 69 60 57 63 52 39 43 358 330 314 321 309 295
147 147 151 142 137 148 130 110 106 104 109 95 95 68 53 44 343 304 281 296 298 289
149 148 149 141 134 131 134 129 121 103 96 100 96 72 72 68 188 239 245 265 295 312
156 150 147 142 139 131 128 127 128 127 134 118 82 58 56 42 52 12 6 15 342 316
155 144 147 138 141 128 125 116 100 116 111 100 113 91 86 105 104 63 59 48 10 328
147 143 145 139 148 150 135 130 132 126 128 117 122 82 88 121 130 128 130 308 221 314
134 143 140 137 145 140 134 122 113 105 79 85 58 18 30 35 55 282 142 168 306 294